Flag for India Weather past 2 weeks in Tarn Taran Sahib, Punjab, India

Now
91 °F

Passing clouds.


Feels Like: 97 °F
Forecast: 76 / 101 °F
Wind: 3 mph from West

Location: Lahore Airport

Current Time: Aug 22, 2014 at 9:49:54 PM

Latest Report: Aug 22, 2014 at 9:25 PM


Visibility: 3 mi

Pressure: 29.65 "Hg

Humidity: 49%

Dew point: 70 °F

Location of Tarn Taran SahibLocation

Historic Weather in Tarn Taran Sahib — Graph

°F

Tarn Taran Sahib temperature yesterday

Maximum temperature yesterday: 99 °F (at 12:55 PM)
Minimum temperature yesterday: 82 °F (at 5:00 AM)
Average temperature yesterday: 91 °F

Past Weeks' High & Low Weather Summary

 TemperatureHumidityPressure
High104 °F (Aug 22, 3:25 PM)94% (Aug 8, 10:29 AM)29.80 "Hg (Aug 8, 10:29 AM)
Low77 °F (Aug 8, 10:29 AM)31% (Aug 22, 3:25 PM)29.39 "Hg (Aug 14, 5:25 PM)
Average89 °F63%29.58 "Hg
* Reported Aug 7 7:55 PM — Aug 22 8:25 PM, Tarn Taran Sahib, Weather by CustomWeather, © 2014

Note: Actual official high and low records may vary slightly from our data, if they occured in-between our weather recording intervals... More about our weather records

Advertising

Tarn Taran Sahib weather history for previous 24 hours

 ConditionsComfort  
Time TempWeatherWind HumidityBarometerVisibility
8:25 PM
Aug 22
93 °FPassing clouds.3 mph47%29.62 "Hg3 mi
7:55 PM93 °FPassing clouds.5 mph47%29.62 "Hg3 mi
7:25 PM95 °FPassing clouds.6 mph44%29.62 "Hg3 mi
6:55 PM97 °FScattered clouds.6 mph42%29.62 "Hg3 mi
6:25 PM99 °FScattered clouds.7 mph39%29.59 "Hg3 mi
5:55 PM99 °FScattered clouds.8 mph42%29.59 "Hg4 mi
5:25 PM99 °FScattered clouds.8 mph42%29.59 "Hg4 mi
4:55 PM99 °FScattered clouds.3 mph42%29.59 "Hg4 mi
3:55 PM104 °FPassing clouds.6 mph31%29.59 "Hg4 mi
3:25 PM104 °FPassing clouds.7 mph31%29.62 "Hg4 mi
2:55 PM102 °FPassing clouds.7 mph33%29.62 "Hg4 mi
2:25 PM102 °FPassing clouds.5 mph33%29.62 "Hg4 mi
1:59 PM100 °FScattered clouds.5 mph35%29.65 "Hg4 mi
1:29 PM100 °FScattered clouds.3 mph35%29.65 "Hg4 mi
12:29 PM99 °FPassing clouds.3 mph37%29.65 "Hg4 mi
11:59 AM97 °FClear.3 mph42%29.65 "Hg4 mi
11:29 AM97 °FClear.6 mph42%29.65 "Hg4 mi
10:59 AM93 °FClear.7 mph53%29.65 "Hg4 mi
10:29 AM93 °FClear.7 mph53%29.65 "Hg4 mi
9:59 AM91 °FClear.7 mph56%N/A4 mi
9:25 AM90 °FClear.7 mph59%29.65 "Hg4 mi
8:55 AM88 °FClear.7 mph66%29.65 "Hg4 mi
8:25 AM86 °FClear.7 mph70%29.65 "Hg4 mi
8:00 AM84 °FClear.3 mph74%29.62 "Hg4 mi
7:30 AM82 °FClear.6 mph79%29.62 "Hg4 mi
7:00 AM82 °FClear.6 mph79%29.62 "Hg4 mi
6:30 AM81 °FPassing clouds.5 mph84%29.59 "Hg3 mi
5:29 AM82 °FClear.6 mph79%29.59 "Hg2 mi
4:30 AM82 °FClear.5 mph74%29.59 "Hg2 mi
3:55 AM82 °FClear.6 mph74%29.56 "Hg2 mi
3:25 AM82 °FClear.6 mph74%29.56 "Hg2 mi
2:55 AM84 °FClear.5 mph70%29.56 "Hg2 mi
2:25 AM84 °FClear.6 mph70%29.59 "Hg2 mi
1:55 AM84 °FClear.5 mph62%29.59 "Hg2 mi
1:25 AM84 °FClear.3 mph66%29.59 "Hg2 mi
12:55 AM86 °FClear.3 mph59%29.59 "Hg2 mi
11:55 PM
Aug 21
86 °FClear.3 mph59%29.59 "Hg2 mi
10:55 PM86 °FClear.3 mph55%29.59 "Hg3 mi
10:25 PM88 °FClear.5 mph55%29.59 "Hg3 mi
9:55 PM91 °FClear.5 mph52%29.56 "Hg3 mi
9:25 PM91 °FClear.5 mph52%29.56 "Hg3 mi
Weather by CustomWeather, © 2014

See weather overviewHow to use our weather pages